RH
22 21 21 23 24 27 30 29 30 32 35 39 43 44 42 37 32 26 22 21 22 29 37 41 40 41 45 46 46 50 57 63 64 69 79 79 73 66 57 49 43 39 34 37 44 45 43 41 39 39 36 33 30 26 24 22 21 20 19 18 16 13 12 13 18 22 25 28 26 32 51 59 59 73 88 91 91 91 86 83 91 100 100 100 100 95
23 22 24 27 25 22 24 27 28 30 32 35 35 31 28 25 24 24 25 26 25 28 34 35 30 27 28 30 36 45 58 71 68 68 83 89 79 74 69 59 50 44 44 52 54 46 43 42 40 40 38 36 34 32 30 28 26 24 22 21 19 16 14 11 12 14 20 27 23 40 81 85 64 71 88 88 89 95 94 90 91 95 98 99 97 96
23 23 24 26 24 21 22 23 24 25 26 27 26 25 25 26 30 33 33 32 28 26 24 23 21 19 18 19 27 42 63 81 80 76 84 83 78 83 79 62 53 54 59 64 60 50 45 42 40 42 43 41 40 38 36 33 31 28 26 24 22 20 17 14 12 10 13 21 20 35 81 103 91 87 93 95 97 99 99 97 96 96 98 100 97 98
22 22 22 23 24 22 22 22 23 24 24 25 26 26 28 31 36 39 38 34 29 26 22 20 18 16 16 17 25 47 68 84 92 91 86 77 80 88 76 57 56 64 72 71 60 54 49 45 43 42 43 44 41 39 38 37 35 33 31 29 28 25 23 20 18 14 10 13 15 22 53 86 99 97 95 98 100 100 100 98 99 99 99 100 99 101
23 21 21 21 22 21 22 24 26 26 26 27 27 28 31 34 37 38 36 33 30 27 24 21 18 15 17 20 28 39 45 52 71 87 89 86 92 90 69 59 68 73 74 69 59 55 55 53 50 45 44 44 41 38 37 37 36 35 34 32 30 28 26 24 23 21 16 12 11 15 29 54 77 89 94 99 100 101 101 97 98 100 99 100 99 101
25 23 22 22 22 21 23 27 28 28 28 28 27 30 32 34 37 37 34 32 30 27 24 21 19 18 20 24 29 33 34 33 40 54 63 69 82 85 70 67 76 76 71 66 60 58 59 58 54 49 47 45 43 40 37 36 36 34 34 32 31 29 27 26 26 25 22 17 12 12 19 32 57 81 92 96 98 99 100 99 99 97 98 100 100 101
26 24 22 22 22 22 25 29 29 27 28 28 29 31 34 36 36 35 34 32 27 24 22 20 22 25 27 32 36 39 42 39 35 38 40 45 62 75 74 74 77 73 69 66 62 59 57 56 54 51 50 47 45 42 38 36 36 34 33 31 31 31 30 32 32 30 25 20 15 11 14 23 43 65 77 87 93 94 98 100 97 96 98 100 99 100
27 25 23 22 22 24 26 28 27 25 25 27 28 31 33 34 34 35 33 27 21 17 16 18 23 32 39 45 49 48 47 42 37 38 38 47 70 80 80 82 79 72 70 66 59 55 53 53 53 53 52 49 46 43 39 36 34 34 34 32 32 31 32 37 39 37 28 21 16 12 13 19 32 49 63 79 90 93 98 96 90 92 97 98 99 101
28 26 25 23 23 24 24 24 24 23 25 27 29 31 32 33 35 34 26 18 13 11 13 17 23 36 46 52 55 51 49 45 38 36 41 59 82 86 81 84 81 72 68 62 53 47 47 49 50 49 48 45 41 38 36 34 31 31 31 31 33 33 34 39 44 42 30 20 16 13 13 17 27 40 53 68 76 84 97 98 93 96 99 99 100 100
30 28 27 25 24 24 23 23 23 24 26 28 30 32 32 36 36 27 17 13 12 11 14 17 25 43 58 60 57 49 46 47 45 43 45 58 76 83 83 85 81 70 62 56 47 39 37 38 39 37 35 32 29 27 26 25 24 24 24 24 27 33 37 40 46 46 34 21 15 13 13 17 26 37 49 61 62 69 91 102 100 99 98 98 101 100
31 29 28 26 26 26 25 24 23 25 27 29 31 31 32 37 33 21 14 13 12 12 17 23 36 59 74 73 63 54 53 54 59 64 66 71 80 85 87 84 76 63 55 50 41 31 28 28 27 25 23 21 18 16 15 16 17 18 19 17 16 23 33 41 47 49 39 23 15 14 13 16 28 42 54 63 61 65 87 101 100 101 100 99 98 96
35 33 30 28 28 28 27 27 26 26 27 27 27 28 33 36 29 19 15 13 11 11 18 30 47 65 78 80 72 71 75 72 73 81 85 86 85 86 88 80 67 57 51 47 38 30 27 24 21 20 20 16 11 9 8 9 11 11 12 12 10 11 20 34 46 52 45 27 15 13 13 13 25 45 59 64 60 64 84 95 94 98 101 97 91 86
36 34 31 29 29 28 28 29 28 26 25 24 24 27 35 36 28 20 15 13 10 11 19 34 51 61 69 80 79 74 78 78 78 82 84 87 88 90 89 77 63 57 53 49 44 40 36 29 24 22 18 12 6 6 7 7 7 7 7 7 8 6 9 24 41 51 49 33 15 10 12 11 18 37 52 58 55 54 70 83 85 90 96 95 94 92
39 35 31 30 30 29 30 29 27 26 26 25 25 31 39 37 28 20 16 13 8 12 25 38 51 56 60 75 81 73 70 73 76 77 77 83 90 92 86 74 66 61 56 52 48 44 40 34 27 20 12 6 5 6 7 7 7 6 6 5 5 6 5 14 32 47 51 41 19 7 10 10 13 26 38 50 61 57 58 68 76 87 98 98 99 100
41 39 35 34 33 31 30 28 26 27 27 27 29 34 40 38 29 22 17 13 8 13 30 38 46 59 67 73 79 76 71 74 79 81 82 88 94 94 85 75 69 65 59 54 46 38 33 26 19 11 6 5 6 7 7 7 8 7 8 6 4 6 5 8 24 40 50 48 29 9 6 9 10 17 25 38 62 69 61 61 65 77 94 99 99 102
40 41 38 36 35 32 30 27 28 28 26 25 28 35 42 40 31 23 17 14 9 13 32 40 42 63 79 75 73 77 78 82 87 87 86 88 90 89 83 75 70 64 56 47 37 27 20 14 10 6 6 6 6 8 8 7 8 7 9 8 5 5 5 6 17 34 46 51 41 17 5 8 9 12 18 26 46 62 61 59 57 63 80 91 94 100
37 40 40 38 36 33 31 29 29 30 26 24 28 38 47 43 32 23 18 16 10 9 25 40 42 57 71 67 71 85 91 94 95 86 80 83 85 83 76 68 61 52 44 36 26 17 10 7 7 5 6 7 8 9 9 8 8 8 8 9 7 5 5 5 12 28 40 48 50 31 8 6 8 8 13 20 31 45 50 50 51 54 65 75 79 85
36 39 40 39 37 34 33 31 31 31 25 22 30 41 47 43 32 24 20 17 14 8 13 28 41 52 60 65 77 91 97 101 97 87 84 87 85 77 66 56 47 39 33 27 18 10 7 6 6 6 7 8 9 10 10 9 9 8 8 9 9 6 5 5 8 21 34 43 50 44 19 5 7 7 8 15 23 34 41 43 48 50 52 58 62 63
35 39 40 39 39 36 33 32 32 31 24 21 29 40 47 44 33 26 23 19 17 14 10 14 29 44 57 70 82 88 93 97 95 89 87 84 77 69 58 47 38 31 26 20 13 8 7 6 6 8 9 10 10 10 10 10 9 9 8 8 9 8 6 5 6 14 28 36 44 49 34 11 5 7 6 10 20 30 39 44 49 48 46 48 51 50
37 40 42 41 39 37 34 34 34 31 24 22 27 37 46 45 34 28 27 23 19 18 15 11 14 25 41 58 68 73 80 88 87 81 76 74 70 63 51 41 33 27 22 16 11 7 6 7 8 10 11 11 11 10 10 9 8 8 9 8 8 8 7 6 5 10 22 31 35 45 45 24 7 6 7 8 16 29 40 47 51 49 44 44 45 45
40 41 44 44 42 38 36 35 35 30 24 23 25 31 39 42 37 32 29 26 23 20 19 17 13 12 20 32 43 51 60 68 71 70 68 68 66 57 46 38 31 27 21 13 9 7 8 9 11 12 12 12 11 11 10 8 8 8 8 8 7 7 8 8 6 6 15 27 30 35 45 40 19 6 6 9 13 26 39 46 51 50 45 43 43 42
41 41 44 46 44 41 39 36 34 31 27 25 25 29 37 42 41 39 35 31 28 23 21 21 19 15 12 16 23 31 39 46 52 57 61 61 58 51 43 37 30 23 17 12 10 9 10 12 13 14 14 13 13 12 10 8 9 8 7 8 8 7 8 9 9 6 8 20 28 28 35 45 37 16 6 7 11 19 32 41 46 47 46 44 41 39
42 42 43 45 45 42 41 37 36 36 31 27 27 30 37 42 42 43 44 39 33 28 25 24 23 21 17 14 14 17 23 30 36 41 44 46 45 43 38 32 25 18 14 13 13 12 14 15 16 16 15 15 14 12 12 10 9 9 8 8 9 8 7 8 10 8 6 12 24 27 25 35 44 33 13 6 8 12 21 32 41 45 46 45 41 38
44 44 44 47 46 44 43 40 41 42 36 29 32 34 35 37 38 42 49 49 42 34 29 27 27 25 24 21 17 14 14 17 21 24 26 29 30 29 27 22 18 16 17 18 17 16 18 18 18 17 15 16 16 14 13 12 10 10 9 9 8 8 7 7 9 10 7 6 15 26 24 22 34 41 29 13 7 8 13 22 34 43 44 43 40 38
47 46 47 48 48 46 44 45 48 48 38 31 31 32 31 32 35 41 49 53 49 41 35 32 31 29 28 27 24 22 20 18 17 16 16 18 19 19 19 18 17 20 22 23 21 20 21 20 18 17 17 18 18 16 14 13 12 11 10 10 9 8 8 8 10 12 11 7 8 19 26 20 20 32 39 30 14 7 9 14 23 34 40 42 39 38
47 47 48 48 49 48 45 48 54 52 40 32 29 27 26 28 33 40 46 51 51 47 42 39 37 36 33 30 29 28 27 25 23 21 20 21 22 22 22 21 23 25 27 27 26 24 21 20 19 19 20 20 19 18 16 14 13 12 11 11 10 9 8 9 13 17 17 12 6 11 22 24 17 18 30 38 30 14 7 10 15 23 32 39 39 37
47 48 49 50 50 49 46 47 53 50 39 31 28 25 25 28 33 37 42 48 50 48 46 45 43 42 38 35 34 32 31 30 29 28 28 28 28 27 27 27 29 31 33 32 29 26 23 21 22 22 22 22 20 19 18 16 15 14 12 12 11 10 8 9 16 24 25 18 9 6 14 22 21 15 16 29 37 28 12 7 11 16 23 31 37 37
48 49 53 52 50 50 49 47 48 47 40 32 27 25 26 28 32 35 40 46 48 46 46 46 45 45 43 40 39 38 37 36 35 34 33 32 31 30 29 30 33 34 36 35 33 32 31 27 24 23 23 23 22 21 19 18 16 15 14 13 12 11 9 10 20 30 32 25 14 6 8 17 21 18 13 16 29 36 26 12 7 11 17 23 30 34
50 53 56 55 53 54 53 48 48 48 44 36 29 26 25 25 27 31 37 41 42 42 42 43 42 44 45 44 44 44 43 43 43 42 41 39 36 35 36 37 39 40 39 38 36 38 39 34 26 24 24 25 24 23 21 19 17 16 16 14 12 11 10 10 20 34 38 32 21 9 5 11 18 20 16 12 16 29 35 26 13 8 12 18 23 27
52 55 56 54 54 59 59 53 51 52 49 41 33 27 25 23 24 28 33 36 36 34 35 39 41 39 40 43 44 45 45 46 48 48 47 46 45 45 47 48 51 51 49 45 42 42 44 39 29 24 25 26 27 25 21 19 18 17 16 15 12 11 11 10 17 32 40 38 30 17 6 6 14 18 18 15 12 16 26 33 28 16 8 11 17 21
52 55 55 52 53 58 60 56 52 51 49 43 36 30 26 24 24 27 30 32 31 28 28 34 36 33 34 38 39 41 42 43 45 46 46 47 47 49 50 53 57 60 59 55 51 48 47 43 34 27 26 28 29 27 23 20 19 18 17 15 13 11 12 11 12 24 37 41 37 27 13 5 8 13 16 17 15 12 14 21 30 29 18 11 10 14
51 52 52 53 56 56 57 57 54 51 49 44 38 33 28 26 26 27 29 29 27 24 24 27 28 28 28 30 31 33 34 34 34 35 37 38 40 42 45 51 57 62 62 61 58 55 52 47 39 31 27 29 32 30 23 19 19 18 17 16 15 13 12 11 10 16 30 41 42 37 24 11 6 9 13 15 15 14 13 12 17 26 29 23 15 11
52 52 51 56 62 61 58 57 56 54 51 48 42 35 30 28 28 28 30 28 24 22 22 23 24 25 25 25 26 27 27 27 27 27 28 29 32 36 42 50 59 63 64 62 61 59 56 50 42 34 30 32 35 30 22 19 19 18 17 17 16 15 13 11 10 14 25 38 44 44 37 24 12 7 9 12 14 14 13 12 11 13 20 25 25 20
55 54 54 58 66 67 63 60 59 59 58 55 48 39 32 30 30 29 28 26 23 21 21 21 22 24 25 25 27 28 27 27 27 27 28 29 32 36 40 46 53 60 64 65 63 62 59 52 45 37 32 35 36 28 21 20 20 18 18 18 17 16 15 11 10 16 28 39 45 47 46 39 26 15 10 9 11 13 12 12 12 11 11 14 18 21
61 58 58 62 69 72 69 67 67 68 66 60 52 42 35 31 31 31 28 24 23 23 21 20 20 23 25 26 27 27 27 26 26 27 29 30 32 34 35 37 40 45 52 58 62 64 62 53 46 40 36 38 36 26 21 22 22 20 19 19 18 17 14 11 13 22 34 45 50 50 51 50 42 33 24 15 11 12 13 12 12 12 11 10 10 12
66 63 62 66 73 77 76 74 71 68 63 58 53 46 41 36 34 34 30 26 26 27 23 20 21 22 23 25 25 25 25 23 23 24 26 27 29 30 32 35 37 37 39 42 49 59 65 60 50 42 39 40 36 26 22 24 23 22 21 19 17 16 13 12 17 28 41 52 57 55 54 54 52 47 40 32 23 18 16 15 13 13 13 12 11 10
71 67 65 67 72 74 77 80 76 68 60 55 52 49 46 41 36 35 33 30 30 29 25 22 22 22 23 24 23 23 23 22 21 22 23 24 25 27 30 34 37 38 38 37 38 46 59 65 58 46 40 42 37 28 24 25 24 23 22 19 17 15 15 17 22 33 48 58 62 62 57 53 51 49 46 42 37 31 26 22 19 17 16 15 14 12
73 71 68 71 74 75 79 84 81 70 61 56 53 52 50 45 39 38 39 37 34 32 29 26 24 23 25 25 23 24 23 21 20 21 21 21 23 26 29 32 35 36 37 38 37 38 47 60 63 53 43 43 40 31 26 26 25 24 22 19 16 16 19 22 26 39 55 63 65 66 63 57 53 51 49 47 43 40 36 31 27 24 21 20 19 17
75 75 75 77 79 79 81 85 81 72 66 62 59 57 53 48 44 45 45 42 38 36 34 30 26 26 28 27 25 24 23 21 20 21 20 21 22 24 27 31 34 35 36 39 40 38 40 51 60 57 49 47 44 35 28 27 27 25 22 17 16 20 24 25 30 45 61 68 67 68 68 65 60 57 55 52 48 44 40 35 32 28 25 23 20 19
74 79 82 84 84 83 83 86 87 81 74 68 64 59 55 52 51 50 47 43 41 41 38 33 29 30 30 27 25 24 23 21 20 20 20 20 20 22 26 30 34 36 38 41 44 42 38 43 53 57 54 51 47 37 30 29 28 25 21 16 16 23 27 27 32 46 61 68 69 71 71 69 66 63 60 54 48 44 41 38 35 32 29 27 24 22
74 81 86 87 89 87 81 83 91 90 81 73 69 65 61 59 56 51 46 43 43 43 40 33 32 33 30 26 24 23 21 20 20 19 19 19 19 21 26 31 35 37 39 43 45 42 38 39 47 54 55 54 49 39 33 31 29 25 21 16 16 24 29 30 33 43 56 64 68 72 75 72 67 59 52 47 46 49 52 51 47 43 39 37 36 34
83 88 90 90 92 89 82 81 88 93 90 84 77 72 66 62 57 51 46 44 44 42 38 35 36 35 30 25 23 23 21 20 19 18 17 17 19 21 24 29 34 37 38 41 43 41 37 37 43 50 54 53 49 40 34 32 30 26 21 15 15 22 30 35 37 42 52 61 67 71 70 62 54 48 45 49 57 63 64 59 52 45 41 40 40 41
87 90 93 93 91 88 87 86 87 91 92 85 75 70 66 62 59 54 48 45 45 44 40 39 39 36 29 24 22 22 21 20 18 16 15 17 19 21 22 27 33 35 35 38 41 40 37 35 40 46 50 50 47 41 36 35 32 27 22 16 13 18 26 35 41 45 51 59 66 66 58 47 45 48 53 58 62 62 59 53 46 40 36 35 36 37
85 86 90 91 88 87 89 90 86 86 88 83 75 73 72 68 63 56 49 47 48 47 45 43 41 36 29 24 22 22 21 20 17 15 14 17 20 19 21 26 31 33 33 35 38 40 38 35 36 41 46 48 46 40 37 37 35 31 25 18 13 13 19 27 36 43 49 55 61 62 57 51 50 52 54 54 52 49 47 44 41 39 37 36 36 36
84 87 91 94 93 92 93 93 87 83 86 88 86 82 78 74 69 59 52 50 51 50 48 45 42 37 31 25 23 22 22 20 17 15 15 18 19 17 19 24 27 28 31 32 34 37 39 36 34 35 41 45 45 41 39 39 39 35 29 22 15 12 13 17 23 30 37 44 50 55 58 57 55 53 50 48 44 41 39 39 39 39 40 41 42 42
85 91 95 97 96 95 96 97 94 89 87 89 91 86 78 73 69 61 54 53 53 52 49 47 44 40 34 28 24 23 23 21 17 16 16 18 18 17 19 22 23 23 27 30 31 32 35 37 35 33 35 39 42 42 41 41 40 38 34 29 21 14 11 13 14 16 20 25 31 37 42 46 49 49 49 47 44 41 39 38 38 38 39 40 41 42
89 91 94 97 98 97 97 98 97 93 89 87 90 90 81 73 68 62 57 56 56 54 52 49 46 42 37 31 25 24 24 21 18 17 17 17 17 17 19 19 19 20 22 25 28 28 29 33 35 35 33 33 34 37 39 40 40 38 36 34 29 20 14 11 12 12 12 13 16 18 21 25 29 32 36 38 40 41 41 40 40 40 40 40 40 39
96 95 97 98 96 92 93 95 93 90 86 84 85 89 85 78 71 65 60 59 59 58 56 52 48 44 40 34 27 24 24 22 19 19 18 17 16 17 19 18 18 19 20 20 22 23 23 25 28 31 33 33 32 32 33 33 34 34 35 36 36 30 22 15 12 12 12 12 12 12 12 14 15 16 19 21 24 28 31 33 35 37 39 42 42 42
100 99 101 96 90 87 91 96 92 87 86 86 85 88 87 82 75 69 63 61 60 60 58 55 51 47 43 36 28 24 23 22 20 20 19 18 17 17 18 18 18 18 18 18 18 17 18 19 21 23 26 29 30 31 31 31 31 31 32 34 36 36 33 26 19 15 13 12 12 12 12 12 12 12 12 13 13 15 17 19 21 23 26 30 33 36
99 99 98 91 86 89 94 95 88 84 87 88 86 87 87 82 76 71 67 64 62 62 61 58 54 51 46 39 30 25 23 21 22 23 21 19 17 17 18 19 18 17 17 16 16 16 15 16 17 18 18 20 21 23 26 27 29 30 31 33 35 37 38 37 32 26 20 16 14 13 13 13 13 13 13 13 12 12 12 12 13 13 14 15 17 20
87 92 95 90 87 90 95 94 87 83 87 88 86 87 88 83 77 73 70 68 66 65 64 62 58 54 50 42 31 25 23 21 22 24 24 21 18 17 18 19 19 18 17 16 16 17 16 15 15 15 15 15 14 14 16 17 18 20 23 26 29 33 37 40 41 39 35 29 23 19 16 16 16 15 15 15 15 15 15 15 14 14 13 13 13 13
Wind_Speed
9 9 9 10 11 11 12 13 14 14 14 14 15 16 17 17 16 17 17 18 19 20 21 21 20 20 21 20 19 20 20 20 20 20 18 17 16 15 15 16 17 18 18 18 17 16 15 14 14 16 18 19 20 21 21 21 21 20 20 21 21 21 24 27 28 27 23 24 26 24 24 28 31 33 33 32 33 33 34 35 37 35 35 42 52 53
9 8 8 10 12 12 12 13 14 14 14 15 16 16 16 16 17 17 17 17 18 19 20 20 20 21 22 21 19 19 20 21 20 19 18 19 18 16 15 15 16 17 17 17 17 16 15 15 14 15 16 18 20 21 22 22 22 22 22 22 22 22 22 23 25 26 25 27 27 25 23 26 32 33 32 34 34 34 35 35 37 38 36 40 51 55
9 9 9 10 11 11 12 13 13 13 13 14 15 16 16 17 18 18 18 18 18 19 20 20 21 21 22 21 20 19 20 20 21 21 21 20 20 17 15 14 15 16 16 16 17 17 17 16 15 15 15 16 17 18 20 21 21 22 23 22 23 23 22 22 22 23 26 29 28 32 31 24 26 32 34 36 36 34 34 36 38 40 40 41 49 56
10 10 10 10 10 11 12 13 12 12 12 13 14 16 17 17 18 19 18 19 19 19 20 21 21 22 22 22 20 19 20 20 21 22 21 20 19 17 15 14 14 14 14 16 17 17 18 18 16 16 15 15 15 16 17 18 19 20 21 22 22 22 22 22 22 22 26 30 29 34 39 29 22 27 30 31 36 37 36 37 37 37 40 41 48 56
11 11 11 10 10 11 11 12 11 12 13 13 14 16 17 17 18 19 19 19 19 20 20 21 22 22 22 21 21 20 21 21 21 19 18 19 19 17 15 13 12 12 13 16 18 18 19 19 18 16 16 16 16 16 17 17 18 18 19 20 20 20 21 22 23 23 25 29 29 32 37 36 31 29 26 24 28 35 37 38 37 36 38 40 46 54
12 11 10 9 10 10 10 11 11 12 14 14 15 16 17 18 19 19 20 20 19 20 20 20 21 21 21 21 21 21 22 22 21 20 18 18 17 16 14 10 9 12 14 16 18 19 19 19 19 18 18 17 17 17 17 17 17 17 17 18 19 19 20 21 23 24 25 27 29 31 35 38 38 33 27 21 22 30 37 39 40 39 39 41 45 52
12 11 10 10 10 10 9 9 11 12 14 15 16 17 18 19 19 20 20 20 19 19 19 19 19 20 20 21 22 22 22 21 21 21 20 18 16 16 13 10 11 14 15 17 18 19 20 19 19 19 19 19 18 18 18 18 17 17 16 17 18 18 19 21 23 23 25 25 27 32 34 36 39 37 31 25 20 26 38 42 40 39 39 40 44 49
12 11 11 11 11 10 8 9 11 13 14 15 16 18 19 19 19 20 20 19 19 18 18 18 18 19 19 20 21 22 21 21 20 20 19 17 16 15 13 11 14 16 15 16 18 20 20 19 19 20 20 20 20 19 20 20 19 17 17 17 18 19 19 20 22 23 23 24 26 30 33 34 37 39 37 30 22 23 36 42 38 38 39 39 43 46
12 12 12 12 11 10 9 10 12 13 14 15 17 19 20 19 19 18 18 19 19 19 19 18 18 18 18 19 20 20 20 20 20 19 18 17 16 14 12 14 17 17 15 16 19 20 20 19 19 19 20 20 20 20 21 22 22 20 18 18 18 20 20 20 21 23 22 23 26 28 31 33 35 37 38 35 28 25 32 39 37 37 38 38 40 42
12 12 12 12 12 11 11 12 12 13 14 16 18 19 19 19 18 17 17 18 19 20 19 18 18 19 18 17 18 18 17 17 17 17 17 18 16 14 13 16 18 16 15 17 19 20 19 19 19 19 19 19 20 21 22 24 25 24 21 19 18 20 22 21 20 21 22 22 25 27 30 33 34 34 35 35 33 29 28 34 37 37 38 39 40 41
11 12 13 13 13 12 12 13 13 14 15 17 18 19 19 17 16 16 17 19 20 19 19 16 16 17 16 15 15 14 14 14 13 13 14 14 14 13 14 17 17 15 15 17 19 20 20 19 19 19 18 19 21 23 24 25 27 27 25 23 20 20 23 23 21 20 21 21 23 26 28 32 34 34 32 31 32 30 26 29 33 36 38 40 40 41
11 12 13 13 13 13 13 13 14 15 15 16 17 17 17 15 14 16 17 19 19 19 18 15 14 15 14 12 12 12 14 13 12 12 13 12 12 13 15 16 15 14 15 17 19 21 21 21 21 20 19 21 22 23 24 25 27 28 28 27 24 21 22 24 22 20 20 20 21 24 26 31 35 35 33 31 31 31 27 23 24 31 40 40 38 39
11 12 13 13 13 13 13 13 15 15 16 17 17 16 14 13 14 16 17 19 20 19 16 12 11 13 11 10 10 13 14 13 12 12 11 11 10 12 15 15 13 13 14 16 18 20 21 22 22 21 22 21 20 20 22 23 25 26 27 27 26 23 22 23 23 21 19 19 20 23 25 30 36 37 36 33 33 34 33 26 19 23 38 43 38 36
11 12 12 12 13 13 13 14 15 15 16 18 18 16 14 13 14 16 18 20 20 19 14 9 10 11 9 8 10 12 13 11 11 10 11 12 12 12 13 12 11 11 12 14 16 18 20 21 21 22 21 18 16 17 18 19 21 24 25 25 25 23 21 22 23 22 20 18 18 21 24 29 34 38 38 35 33 34 36 36 27 20 29 40 39 36
11 12 11 12 13 13 13 14 15 14 15 17 17 16 14 14 15 17 18 19 20 18 13 9 9 8 8 8 8 9 10 9 8 7 7 8 9 9 10 10 10 11 13 15 17 19 20 20 21 21 18 15 14 15 16 16 18 21 23 23 22 21 20 21 22 22 20 18 16 19 24 28 32 36 40 39 35 33 34 37 34 24 21 26 30 34
13 12 12 11 12 13 13 14 14 14 15 15 14 13 13 14 15 17 17 18 19 17 13 10 8 6 6 7 7 8 7 6 5 4 4 3 4 6 8 9 11 13 15 17 18 19 19 19 20 19 16 14 14 15 16 16 16 18 20 21 21 20 20 20 21 21 21 20 17 17 22 26 30 35 39 40 39 36 34 34 35 31 24 20 21 28
14 14 12 11 11 12 13 14 14 14 16 15 13 12 11 13 14 15 16 16 17 16 12 10 8 7 7 8 8 4 3 4 4 6 5 4 4 6 8 11 13 15 16 17 17 18 18 18 18 18 16 15 15 16 17 17 17 17 18 19 19 19 20 20 20 20 20 21 19 16 19 24 28 33 37 40 41 40 36 35 34 33 31 26 21 22
15 15 13 11 11 12 13 14 14 15 16 16 14 12 12 12 13 14 14 14 15 15 13 10 9 8 7 7 6 2 3 4 5 5 5 7 7 9 11 13 14 14 15 15 16 17 17 17 17 18 17 16 17 17 18 17 17 17 17 17 18 18 19 20 20 20 19 20 20 17 16 21 27 31 36 39 41 41 39 36 35 35 35 33 29 26
16 15 13 11 11 12 13 14 14 15 16 15 14 13 13 13 13 13 14 13 13 14 15 11 9 9 7 6 5 4 3 4 6 7 9 10 11 12 14 15 15 15 14 15 17 17 17 16 17 18 18 18 19 18 18 17 17 17 17 17 17 17 17 19 21 20 19 19 21 20 17 18 24 30 34 38 40 40 39 38 37 37 37 36 34 32
16 15 14 12 12 12 13 13 14 16 16 14 13 12 13 13 13 13 13 13 13 13 14 13 10 8 7 8 9 9 10 11 10 11 12 13 13 15 16 17 16 16 16 17 17 17 16 16 17 17 18 19 19 19 18 17 16 16 16 17 17 17 16 18 21 22 20 19 20 21 19 17 21 27 33 37 40 40 39 39 39 39 38 37 36 35
15 15 14 13 13 13 13 13 14 16 16 15 13 11 11 12 12 12 12 12 12 12 13 13 12 9 7 9 12 13 15 15 15 14 15 15 16 17 18 18 17 17 18 17 17 16 15 16 17 17 18 19 19 19 18 16 15 16 16 16 17 17 17 16 19 22 22 21 20 21 21 18 18 23 30 36 40 40 39 39 40 40 39 39 38 37
14 14 14 13 13 13 13 13 15 16 16 16 15 13 11 11 12 12 11 11 11 11 11 11 11 11 10 9 11 14 16 17 17 17 17 17 19 20 20 19 19 19 18 17 16 16 15 16 17 18 19 19 20 19 18 17 16 16 16 16 17 17 17 16 17 20 23 23 21 21 22 21 18 20 26 33 38 40 39 40 40 41 40 40 40 39
14 14 14 13 13 13 13 13 14 16 16 15 15 15 13 13 13 12 11 11 11 10 10 10 10 10 11 10 10 11 14 16 17 18 18 19 20 21 21 20 19 18 17 17 17 17 16 17 18 19 19 19 20 19 19 18 18 17 16 16 16 17 18 17 16 18 22 24 24 23 22 22 21 19 22 28 35 38 39 40 41 41 41 41 41 41
14 14 14 14 13 12 13 13 13 14 16 15 14 14 14 14 14 12 11 11 11 10 10 10 9 9 9 10 10 10 11 13 14 16 17 18 19 19 19 18 18 17 16 17 18 18 18 18 18 19 18 19 20 20 19 19 18 18 17 17 17 18 18 18 17 16 20 24 26 25 24 24 22 21 21 24 30 36 38 40 41 42 42 42 43 42
14 14 14 14 12 12 12 13 12 13 15 15 13 13 14 14 13 12 11 11 12 11 10 9 9 10 9 9 9 9 10 11 12 14 15 15 16 16 16 16 16 16 16 18 19 19 18 17 17 17 17 18 19 19 19 18 18 18 18 18 18 19 19 19 18 17 18 22 26 27 27 26 25 23 22 22 26 33 37 40 42 42 42 43 43 44
14 14 14 14 13 12 12 12 11 12 14 14 13 12 12 12 12 11 11 12 12 12 11 10 9 10 10 9 9 9 9 11 12 13 14 14 15 15 16 16 16 16 16 18 19 18 17 16 16 16 17 17 18 18 18 18 18 18 18 19 20 20 20 19 19 18 17 20 24 27 28 28 27 25 24 24 24 28 35 40 41 42 43 43 44 44
15 15 15 15 14 13 12 11 11 11 13 14 14 12 12 12 12 11 11 11 12 12 13 12 11 10 10 10 10 9 10 11 12 13 13 14 15 16 17 16 16 16 17 18 18 18 16 15 16 17 17 17 17 17 17 17 18 19 20 20 21 21 20 19 18 18 17 18 22 26 29 29 29 28 26 26 25 25 30 37 41 42 43 44 45 46
15 15 15 15 14 13 12 12 11 11 12 14 15 13 13 13 12 11 10 10 11 12 13 13 13 12 11 10 10 10 11 12 12 12 13 14 15 16 17 17 17 17 18 18 18 18 17 16 17 18 17 16 16 16 17 18 18 20 21 22 21 20 19 19 18 17 17 18 20 24 28 30 30 29 28 27 27 26 27 32 38 42 43 44 45 46
15 15 15 15 14 13 13 12 12 12 13 14 15 14 13 13 12 11 10 10 11 11 12 12 13 13 13 12 12 12 12 13 13 14 14 15 16 17 17 18 19 19 19 20 19 19 18 18 18 18 17 16 16 16 17 18 19 20 21 22 21 20 19 18 17 16 16 17 18 21 26 30 31 31 30 29 28 28 27 28 32 39 44 45 46 47
14 14 14 15 14 12 11 11 11 11 13 14 15 14 13 12 12 11 10 11 11 11 11 11 13 13 13 13 14 14 14 14 15 16 16 16 17 18 19 20 20 21 21 21 20 20 20 19 18 17 16 16 16 16 17 19 20 20 21 21 21 20 19 18 17 16 15 16 17 19 23 28 31 32 31 30 29 29 29 28 29 33 40 44 46 47
15 14 15 16 15 12 10 10 10 10 12 13 14 14 13 12 11 11 11 12 12 11 11 11 12 13 13 13 13 14 15 15 16 17 17 18 18 19 20 20 21 22 22 22 21 20 20 19 18 17 16 16 16 17 18 19 20 20 20 20 20 19 19 18 18 17 16 15 15 16 20 25 29 31 32 31 30 29 29 29 29 29 33 39 44 47
15 15 15 16 16 14 11 10 10 11 13 13 14 13 12 11 11 12 13 13 13 12 11 11 11 12 12 12 13 14 15 15 16 17 18 18 19 19 20 20 22 23 23 23 22 21 20 19 18 16 16 15 16 17 18 18 19 19 19 19 20 20 19 18 18 18 16 15 14 14 16 20 25 29 31 32 31 30 30 30 30 30 30 33 37 42
16 16 15 15 16 16 14 12 11 12 13 14 14 13 12 11 10 11 13 15 14 13 12 11 11 11 11 12 13 14 15 16 16 16 17 18 18 19 19 20 21 22 23 22 22 21 19 18 17 16 15 15 16 17 17 16 17 18 19 19 20 20 20 19 19 19 18 15 13 13 13 15 19 24 28 30 31 31 31 30 30 30 30 31 33 36
16 15 14 14 14 15 15 14 13 13 13 14 14 14 13 11 10 11 14 15 15 15 14 12 11 11 12 13 14 15 16 16 17 17 18 18 19 19 19 19 20 21 21 21 21 20 18 17 16 15 15 15 16 15 15 15 15 16 18 20 21 21 21 20 19 19 18 15 13 12 12 12 14 18 23 27 29 30 31 30 30 30 30 31 32 33
16 16 14 13 13 14 14 14 12 12 13 13 14 14 13 11 11 12 14 15 15 16 15 13 12 12 12 13 14 15 16 17 17 17 18 19 19 20 20 20 20 20 20 19 19 18 17 16 15 14 14 14 15 14 13 13 14 16 18 20 21 22 21 20 19 18 17 15 13 12 12 11 12 14 17 21 24 27 28 29 29 29 30 30 31 33
16 15 14 13 12 12 12 12 11 12 13 13 14 14 13 12 11 12 15 15 15 16 15 14 14 14 13 13 14 15 16 16 17 17 17 18 18 19 19 19 19 19 18 18 17 16 15 15 14 14 14 14 13 12 11 13 14 17 19 20 21 21 20 20 19 17 15 14 13 13 12 12 12 12 13 15 18 21 23 25 26 27 28 29 30 31
15 15 14 13 12 11 11 10 11 12 12 13 13 13 13 12 11 13 15 14 14 16 16 15 15 15 15 14 14 14 15 16 16 16 16 17 17 17 16 16 16 17 17 16 16 15 14 14 14 13 13 12 12 10 10 12 15 17 19 20 21 20 19 18 17 16 14 13 13 13 13 12 13 13 13 14 15 16 18 21 23 24 25 26 28 29
15 14 14 13 13 13 12 11 11 11 11 12 12 11 12 12 12 13 14 15 14 16 16 16 16 16 16 16 15 15 15 15 15 15 15 15 15 15 14 15 16 16 16 16 15 14 13 13 13 12 11 11 10 9 10 12 15 17 19 20 20 19 18 17 15 13 12 12 13 14 14 14 14 14 15 15 15 15 16 17 19 21 23 24 25 27
15 14 13 13 14 14 13 12 10 10 11 11 11 11 11 12 11 12 14 15 15 16 17 17 17 16 16 16 16 15 15 15 15 15 14 15 15 15 15 16 17 17 17 18 17 14 12 12 12 11 10 9 9 9 9 11 14 16 18 19 19 17 16 15 14 11 9 10 12 13 14 15 14 14 15 15 15 16 16 17 18 19 20 22 23 25
15 14 13 14 14 14 13 11 9 10 11 11 10 11 12 12 12 12 14 15 15 16 17 18 18 17 17 16 16 15 14 14 14 14 15 15 15 16 17 17 18 18 18 18 18 15 12 11 11 10 9 9 9 8 9 11 13 15 17 18 17 16 15 14 13 10 8 8 10 12 13 13 13 13 14 14 15 15 15 16 17 18 19 21 22 23
16 15 14 15 16 16 14 10 9 10 12 11 10 11 13 13 13 13 14 13 14 15 17 19 18 17 17 16 15 14 13 13 14 14 15 15 16 17 17 18 18 18 18 18 17 15 11 9 9 9 9 9 9 8 9 10 12 14 16 16 16 15 14 13 11 9 7 7 8 10 11 12 12 12 13 13 14 14 14 15 15 16 17 18 19 21
17 16 15 15 17 17 14 12 11 11 12 12 12 12 13 14 14 14 14 12 13 14 17 18 18 17 17 16 14 13 13 13 13 13 14 15 16 16 16 16 17 17 17 17 17 15 11 9 8 9 9 9 8 8 8 10 12 14 15 15 15 14 14 13 11 8 7 7 7 8 10 11 11 11 11 12 12 13 14 14 15 15 16 16 17 18
17 17 17 17 18 17 14 14 13 11 11 11 11 11 13 14 14 15 14 13 13 15 17 17 17 16 16 15 13 12 12 12 13 13 14 15 15 15 15 15 15 16 17 17 17 16 13 9 8 9 9 9 8 8 8 10 11 13 14 14 14 14 13 12 11 9 7 6 7 8 9 9 9 9 9 9 10 12 13 14 14 15 15 15 15 16
19 19 18 18 17 16 15 15 15 12 10 9 10 11 12 13 14 16 15 14 13 15 16 17 16 16 16 14 12 11 11 11 12 13 14 14 14 14 14 13 14 15 17 17 17 17 15 11 8 8 9 9 9 8 8 9 11 12 13 13 13 14 13 12 11 10 8 6 5 7 8 9 9 9 10 10 11 11 12 13 14 14 15 15 15 16
18 19 19 17 17 16 15 16 16 14 11 9 9 10 12 13 15 17 16 15 14 14 16 17 16 15 15 14 13 11 10 11 11 12 13 13 13 13 12 12 13 14 16 17 17 17 16 14 11 9 9 9 9 9 8 9 10 11 12 12 12 12 12 12 12 11 10 8 6 5 6 8 9 11 11 12 13 13 13 14 15 15 16 16 16 17
17 18 19 19 18 18 17 16 17 17 14 12 11 11 12 14 16 18 17 15 14 15 16 17 17 16 14 14 13 11 10 10 10 10 11 12 12 11 11 11 12 13 14 16 16 16 16 16 14 11 9 9 9 9 9 9 10 11 11 11 11 10 10 10 11 11 11 10 8 7 6 6 7 9 10 11 12 13 14 15 16 17 17 18 18 18
19 19 19 19 20 20 19 18 18 18 17 15 13 12 13 15 16 18 17 15 14 15 15 16 17 16 15 13 13 12 11 9 9 9 10 11 11 10 10 11 12 13 13 14 15 15 16 16 16 14 12 10 9 9 9 10 10 11 11 11 10 9 9 9 9 9 9 9 8 8 7 7 7 7 8 9 11 12 13 14 15 16 17 18 19 19
23 21 21 21 22 22 21 20 20 19 18 17 16 15 15 15 16 18 18 16 15 15 15 16 17 16 15 14 13 12 11 10 8 8 9 10 10 10 10 10 11 12 12 13 14 14 15 15 16 15 14 13 11 10 10 10 10 11 11 11 11 10 9 9 9 8 8 7 8 8 7 7 7 7 7 8 8 10 11 12 13 14 15 16 17 17
26 25 26 26 26 24 23 21 21 20 18 18 18 17 16 16 17 18 18 17 16 15 15 16 17 16 15 14 13 12 11 10 8 8 8 10 10 10 10 10 11 11 11 11 12 13 14 14 15 15 14 13 12 11 11 10 10 11 11 11 11 11 10 9 9 9 9 9 8 8 8 8 8 8 8 8 8 8 9 10 10 11 11 12 13 14
29 30 32 33 31 29 27 26 25 22 19 18 19 18 17 17 17 18 18 18 17 15 15 16 17 17 16 15 14 12 11 10 8 8 8 10 10 10 10 10 10 10 10 10 11 12 13 14 14 13 13 13 13 12 12 12 11 11 11 11 12 11 11 10 10 10 10 10 10 10 9 9 9 10 10 10 9 9 10 10 10 10 10 10 10 11
31 32 33 34 34 33 31 30 28 25 20 18 19 19 18 17 17 18 18 18 17 15 15 16 17 17 17 17 15 13 12 10 7 7 9 10 10 10 10 10 10 10 10 10 10 12 12 13 13 12 12 12 12 13 13 13 13 13 13 12 12 12 11 11 11 11 11 11 11 11 11 11 11 11 11 11 11 11 12 12 12 12 12 12 12 12
Wind_Direction
277 279 288 291 287 281 277 277 280 282 281 282 284 284 283 282 282 283 284 286 287 288 287 286 286 282 280 278 277 273 269 265 264 265 264 260 260 262 264 268 269 271 273 277 281 283 287 288 279 268 266 267 265 264 262 259 257 255 256 258 261 259 252 248 247 248 243 235 236 234 239 248 244 237 235 233 236 238 232 225 221 224 227 222 212 205
281 282 286 288 285 280 278 279 279 280 279 279 282 284 289 292 290 287 285 284 285 284 283 283 283 281 279 276 273 270 267 265 264 262 260 257 260 262 265 268 270 272 276 280 282 281 283 282 277 271 267 266 264 262 261 260 258 256 254 254 255 257 255 252 251 249 241 238 235 223 224 239 240 238 234 234 238 234 229 226 222 222 226 223 212 206
278 273 273 275 279 280 279 278 279 280 279 280 284 290 294 295 293 291 289 286 283 282 281 281 280 279 279 277 271 266 265 268 265 258 256 254 257 263 266 265 268 275 280 282 282 282 280 276 271 270 270 269 267 266 266 265 263 262 260 258 256 255 255 253 252 249 240 240 236 225 227 229 223 227 233 233 230 224 224 226 223 222 225 225 217 211
275 271 270 268 269 271 273 278 284 287 287 288 290 292 295 296 295 295 293 290 287 285 283 282 279 276 276 275 271 264 262 268 264 254 248 248 252 258 257 257 265 276 279 277 278 278 276 273 271 272 274 275 275 274 274 273 271 271 270 269 267 264 262 258 253 249 242 242 238 232 239 245 231 229 236 232 221 218 221 223 220 219 222 225 222 216
276 274 272 268 267 271 277 286 291 292 293 293 293 294 295 294 293 292 292 292 292 290 287 284 280 278 276 273 269 265 263 265 264 255 245 244 251 251 246 253 265 269 269 270 272 272 271 272 273 274 274 275 277 277 278 278 277 276 276 277 278 276 274 270 263 255 248 245 241 235 238 243 239 234 236 233 222 221 223 222 218 215 220 225 225 219
275 274 276 278 278 282 289 294 295 294 296 298 300 300 298 296 294 293 294 294 294 292 289 285 281 279 277 273 271 268 266 264 261 256 251 251 255 250 243 252 260 256 258 262 267 269 270 272 273 274 274 273 274 276 278 278 278 277 278 278 280 281 279 278 274 265 257 250 242 237 236 237 236 231 232 235 232 228 224 219 216 216 222 227 225 219
283 284 288 290 288 290 295 295 295 296 299 302 304 303 300 298 298 298 298 298 297 296 291 287 282 277 274 273 272 271 269 267 262 258 253 253 254 248 244 247 245 244 250 258 265 269 271 273 275 276 277 276 276 277 278 277 278 278 281 284 285 285 282 279 280 274 265 256 244 238 236 237 236 234 236 238 236 231 222 215 214 218 223 225 223 218
291 296 299 300 302 305 302 296 295 297 300 303 305 303 301 301 301 301 301 302 303 300 294 289 283 277 272 270 270 269 268 265 262 257 250 248 248 244 243 242 237 239 247 258 266 269 271 273 274 275 277 280 281 282 282 281 282 282 283 289 290 288 284 281 282 279 271 257 246 241 237 237 237 236 238 237 235 236 222 213 214 217 217 218 216 214
301 303 304 307 310 309 302 297 297 300 304 305 304 304 304 306 306 304 305 307 307 304 300 295 287 278 271 268 267 267 265 261 258 254 246 242 241 238 241 239 235 239 247 257 264 266 269 269 270 273 275 280 285 286 288 288 288 289 290 291 290 287 284 283 282 280 275 260 247 242 236 234 236 236 238 237 239 245 229 217 218 215 212 214 214 215
309 305 304 307 308 307 304 304 304 306 307 306 304 304 308 310 308 308 311 312 311 309 303 296 289 282 275 270 269 268 262 256 253 250 244 241 240 239 238 232 230 238 247 255 260 262 264 264 264 269 274 280 287 290 293 293 293 295 296 293 288 284 282 282 283 281 277 265 251 243 236 231 231 233 237 238 240 246 235 219 217 215 213 216 217 219
309 304 304 306 308 308 309 310 309 307 305 302 302 305 309 308 306 311 317 318 316 312 302 290 280 278 278 274 275 277 266 254 250 248 243 238 239 237 228 223 226 236 248 254 257 259 262 262 262 266 274 285 292 293 291 291 292 292 293 292 289 284 281 281 283 282 278 269 255 245 237 229 226 227 231 234 234 239 236 220 214 214 214 216 217 217
309 305 305 305 306 306 308 308 303 300 299 297 298 302 305 305 307 315 321 323 321 315 303 285 266 265 273 279 277 269 263 260 257 251 243 237 238 231 220 219 226 236 247 253 256 259 262 262 262 267 279 291 295 291 288 286 286 287 287 289 288 284 282 281 282 283 280 272 258 247 239 229 224 222 224 228 230 233 232 223 218 218 216 213 212 213
311 306 303 305 305 304 304 299 296 299 303 304 305 306 307 309 313 319 325 328 326 321 310 288 266 261 266 279 273 255 254 263 263 257 253 240 223 213 212 218 228 237 247 254 259 262 264 265 266 274 285 293 293 290 289 289 288 288 288 288 288 284 281 280 281 283 283 275 260 248 239 230 225 221 220 224 229 231 230 228 235 230 217 210 208 210
312 307 306 305 304 302 301 295 298 307 311 312 314 313 314 315 318 324 330 332 331 327 318 296 274 268 269 280 277 259 256 264 268 269 265 240 207 199 214 225 235 246 255 263 268 270 271 272 274 281 288 288 286 287 291 295 295 294 293 291 289 286 280 279 279 281 285 280 264 250 240 232 227 222 220 221 225 229 230 231 240 237 212 206 208 211
318 313 311 308 304 301 298 295 301 308 310 312 313 311 313 318 323 329 333 335 335 331 323 306 285 278 282 286 286 274 259 261 276 274 263 241 209 208 231 243 252 263 270 273 275 275 276 279 281 285 288 284 283 288 293 299 301 301 300 296 292 288 282 278 277 278 283 284 270 252 242 234 229 224 221 220 220 223 226 229 235 235 210 198 204 207
324 320 317 313 307 300 295 296 301 305 308 313 311 305 310 318 323 327 331 337 339 335 324 311 295 282 286 292 304 292 255 247 261 225 196 193 199 222 247 262 269 273 275 274 275 278 280 284 286 287 287 285 289 297 301 303 305 307 308 303 297 290 283 278 276 275 278 283 278 258 244 237 230 226 223 221 220 221 222 225 230 231 221 202 197 201
326 326 325 320 309 300 295 297 303 306 311 316 312 306 311 317 320 324 329 337 341 339 327 311 297 282 283 294 306 294 216 198 194 188 196 221 241 263 271 272 273 273 274 275 278 284 289 290 291 290 290 293 301 307 309 309 309 312 315 311 302 292 283 277 276 274 273 278 281 268 248 239 231 226 224 223 222 222 222 222 225 226 224 219 212 204
327 329 331 324 310 301 298 301 306 308 312 317 314 312 315 315 318 322 327 335 342 344 336 316 296 285 287 296 294 229 150 178 200 221 253 250 252 270 274 274 277 278 279 282 288 294 297 296 294 295 299 305 310 312 312 311 309 312 316 315 308 295 283 276 274 274 271 271 277 276 257 240 233 227 224 224 224 223 222 220 221 222 223 225 225 220
327 330 333 326 311 303 302 306 306 306 314 321 318 315 314 313 314 317 323 333 341 345 344 333 306 286 284 292 279 244 235 253 254 262 256 243 249 264 272 278 282 286 291 294 298 300 301 299 298 302 308 310 311 311 310 309 308 309 312 313 310 301 286 274 270 271 269 266 270 276 269 247 234 229 224 223 224 224 221 218 217 218 220 222 224 225
326 328 329 325 313 306 306 307 303 304 316 324 318 310 306 305 307 311 318 330 337 341 345 347 334 304 280 277 276 270 272 274 271 265 252 247 258 267 275 281 286 294 301 303 304 303 300 300 301 305 308 307 307 307 305 305 306 308 309 308 308 305 294 276 267 266 267 264 263 269 273 260 239 230 226 223 224 224 222 218 216 216 217 219 220 221
323 325 326 323 315 310 309 306 302 306 318 324 316 306 300 298 301 306 313 323 332 336 339 345 347 333 302 279 274 273 273 273 269 265 261 261 268 273 279 285 291 299 303 304 304 300 298 299 301 304 304 302 302 303 302 304 307 308 308 307 306 305 302 288 271 263 263 263 261 262 267 267 251 235 228 225 224 225 223 219 216 215 216 217 218 218
322 324 325 323 319 314 312 308 304 309 319 322 317 313 309 304 301 305 311 316 323 330 333 338 341 336 328 307 286 278 276 275 274 272 271 271 273 276 281 287 296 301 303 304 302 299 299 299 301 301 300 300 301 302 304 307 309 309 308 307 308 307 306 300 282 266 261 261 260 258 259 263 261 245 232 227 225 225 223 221 219 217 215 216 217 217
323 324 324 324 323 318 313 309 305 309 318 320 318 316 313 309 305 304 308 312 315 319 324 330 330 326 329 326 311 296 287 283 281 278 276 276 277 279 285 293 299 302 304 304 301 300 301 300 299 297 297 299 302 303 306 308 308 309 309 309 311 311 307 303 292 271 260 258 258 257 255 256 259 254 239 230 227 226 224 223 222 219 216 216 217 217
322 322 322 323 323 321 315 311 307 308 315 318 316 313 309 306 305 305 306 307 309 310 313 320 321 317 320 321 315 310 302 295 289 284 282 283 285 289 293 297 299 301 302 300 298 299 299 297 295 293 295 301 302 303 306 307 307 308 311 313 314 314 309 303 296 280 261 254 254 254 254 253 254 255 248 236 229 225 224 224 224 222 219 217 217 217
317 318 318 317 319 319 314 312 309 307 311 314 312 307 303 302 303 306 308 309 309 307 307 311 313 313 315 313 307 305 303 297 291 290 291 292 294 296 295 295 296 298 297 294 294 295 295 293 290 291 297 301 302 303 306 307 308 310 313 317 317 315 311 305 299 288 267 253 249 249 251 251 251 251 251 246 235 227 224 223 225 225 222 219 219 219
311 315 316 315 316 316 314 312 310 306 306 307 305 302 300 300 302 304 307 309 309 308 307 307 308 309 311 310 307 303 295 288 289 294 297 296 295 293 292 292 293 293 291 291 291 291 291 291 292 296 300 301 301 305 308 309 311 313 315 318 318 315 310 306 300 291 275 256 245 244 246 248 248 247 248 248 243 233 226 224 225 226 225 223 221 222
309 313 315 315 315 316 316 314 308 303 302 301 303 306 306 305 304 304 304 305 305 304 305 307 308 308 309 308 309 307 299 293 294 295 295 293 291 290 290 291 292 291 291 290 290 291 294 298 299 298 299 301 305 309 312 314 315 316 317 317 316 313 310 307 303 294 281 263 247 240 240 243 245 245 245 246 246 240 231 226 225 225 226 226 225 225
306 312 313 313 315 317 317 315 310 305 303 302 305 310 312 309 305 303 302 302 300 300 301 304 307 308 308 307 306 306 304 302 300 298 295 293 290 290 292 294 296 296 295 294 295 298 303 303 299 296 297 303 310 315 316 318 318 318 317 315 313 312 310 309 307 298 285 270 253 240 236 238 241 243 243 243 244 243 237 230 227 226 226 227 227 227
304 309 310 309 313 316 316 315 313 309 306 304 306 311 312 308 304 302 300 297 296 297 299 301 304 306 307 309 310 309 307 305 304 304 303 301 299 299 300 301 301 300 299 299 300 303 305 301 295 293 298 306 315 320 320 319 319 317 314 312 311 311 311 312 311 305 291 276 261 244 235 234 237 239 241 241 241 241 240 235 230 228 228 228 229 230
301 305 307 308 311 314 313 313 313 309 306 304 304 308 309 305 302 301 298 293 294 298 300 300 302 305 308 311 313 313 312 310 308 308 307 306 305 304 303 303 303 303 301 300 301 302 301 297 293 293 299 309 318 323 322 320 317 314 311 310 311 312 312 312 314 311 298 284 271 253 238 232 233 236 238 239 239 239 239 237 234 231 230 230 231 231
299 302 305 309 312 314 314 313 313 310 304 300 300 304 305 303 302 301 295 290 292 298 303 302 301 305 310 313 313 313 311 309 307 307 306 305 304 303 302 302 303 303 302 301 301 301 299 297 296 297 300 308 319 324 322 318 313 310 310 311 312 313 312 311 314 313 305 291 279 264 245 234 231 233 235 236 238 238 238 238 236 233 232 231 233 234
297 300 305 310 313 315 317 318 318 314 306 300 299 303 306 305 302 298 293 289 290 297 303 302 301 306 312 315 315 313 311 310 309 308 307 305 304 304 304 304 304 303 302 302 301 301 300 299 299 298 299 308 319 321 317 313 310 309 311 313 314 313 312 311 311 312 307 297 286 274 257 240 232 231 233 235 236 237 237 237 236 235 234 232 233 235
294 298 304 311 311 310 314 319 320 316 308 303 303 306 309 307 299 292 289 288 291 297 301 301 304 311 316 318 318 316 315 315 316 315 314 312 311 310 309 308 305 303 301 301 302 301 300 299 298 297 299 309 317 316 312 310 311 312 315 317 316 315 313 311 309 307 304 296 286 279 269 252 238 232 232 234 235 236 236 237 237 236 235 234 234 234
291 295 301 306 306 306 311 316 318 313 305 302 302 306 309 306 296 290 287 287 291 296 299 301 308 316 320 321 320 318 317 319 321 321 321 320 318 316 314 310 305 303 302 302 301 301 300 299 297 295 299 308 311 308 308 311 314 317 320 319 318 316 313 310 306 302 298 291 282 276 273 262 248 238 235 235 236 237 238 238 238 237 237 236 236 235
286 291 297 301 302 302 303 307 309 305 299 297 299 302 305 304 297 289 285 286 291 295 298 304 312 317 320 321 318 316 317 321 324 325 324 323 321 318 315 312 307 304 304 303 303 303 302 301 298 297 300 305 305 303 307 314 318 323 325 323 320 318 314 309 304 298 291 283 274 268 267 265 257 248 242 239 238 239 240 240 240 240 240 239 239 238
284 288 293 294 292 290 291 296 299 297 293 292 293 297 301 301 295 287 284 288 292 295 299 305 310 315 320 319 316 316 320 325 328 329 327 325 323 322 319 315 312 309 307 306 305 306 307 304 301 298 298 301 301 302 309 317 322 326 328 326 323 321 315 309 304 298 286 273 265 261 260 260 260 257 253 248 244 243 243 244 244 244 244 244 243 242
282 284 286 286 285 287 291 297 299 295 293 292 291 295 298 297 290 285 286 290 292 293 298 303 306 312 317 316 316 321 325 329 331 332 331 328 327 326 323 319 318 320 319 315 311 310 311 310 303 298 296 299 302 306 314 319 324 328 329 328 327 324 319 312 308 301 286 266 255 253 253 254 255 257 258 256 254 252 250 249 249 249 248 248 248 248
282 280 281 283 287 293 299 304 304 300 298 297 296 297 298 295 291 287 287 290 292 293 297 299 303 310 314 313 317 325 328 330 333 334 334 334 334 333 331 329 330 333 335 332 325 317 315 314 308 299 296 300 307 313 319 321 324 329 332 331 330 328 324 319 315 307 289 266 252 247 247 247 249 253 257 259 260 260 259 257 255 254 253 252 251 251
280 278 279 283 286 291 297 303 308 306 302 300 299 298 294 291 291 290 288 289 292 293 294 296 301 307 310 310 315 323 326 330 334 336 338 341 342 342 342 342 342 345 346 344 339 329 319 315 312 304 301 307 314 320 322 322 327 333 336 335 335 334 331 328 323 315 296 272 257 250 247 246 246 250 254 258 260 261 262 262 262 261 260 259 257 255
277 277 278 280 282 286 293 301 309 306 301 301 299 294 290 290 291 288 285 288 292 293 293 295 300 304 304 306 312 319 325 331 335 338 344 347 347 348 349 350 351 352 351 348 343 336 324 316 315 314 312 316 321 324 326 326 332 339 341 340 341 341 340 337 329 318 302 280 265 258 254 250 248 249 252 255 257 258 258 260 262 264 264 264 263 262
279 279 277 277 279 281 287 298 306 302 299 298 294 288 286 289 290 286 285 290 294 292 290 293 298 300 299 303 310 316 324 334 337 340 346 348 350 352 353 355 356 354 351 348 346 342 332 321 323 324 322 324 326 328 330 332 338 344 345 346 349 349 348 346 337 321 302 284 269 261 256 254 252 252 253 254 254 254 256 258 261 264 265 266 267 266
280 279 278 278 277 278 286 298 301 297 296 295 290 284 283 285 286 285 289 295 295 289 288 292 296 297 296 300 307 315 325 335 337 340 346 350 352 354 354 357 359 357 354 352 351 351 345 332 330 332 329 329 330 331 333 337 343 347 347 350 356 358 356 354 349 333 309 285 270 261 255 253 253 254 255 255 254 255 257 260 262 265 266 268 269 270
275 274 276 276 275 277 287 297 294 290 289 289 285 283 282 282 283 285 290 295 293 290 290 294 296 296 294 297 305 315 327 333 333 338 347 352 353 351 352 358 1 0 359 358 357 359 358 346 337 337 336 334 333 333 337 340 344 348 349 352 0 5 5 3 0 352 333 302 278 266 261 258 256 256 256 257 257 258 260 262 263 265 266 267 269 270
274 272 271 272 276 279 285 290 289 287 284 281 281 282 281 281 282 285 290 294 293 290 291 292 294 294 294 298 306 316 327 330 330 339 351 354 350 347 349 357 3 3 4 4 4 6 7 0 346 340 341 339 335 336 341 342 343 347 349 352 360 6 9 9 9 6 360 340 304 280 271 269 268 266 264 263 262 261 262 263 265 266 266 267 267 268
274 273 271 272 275 278 282 285 287 286 282 279 280 280 279 279 280 283 288 292 291 288 289 291 293 296 298 300 306 315 325 327 329 342 354 353 345 342 347 357 4 5 6 7 9 10 11 9 0 346 341 339 337 339 343 341 340 344 346 348 355 3 7 10 11 11 10 4 348 318 290 278 274 273 272 271 270 267 266 266 266 266 267 267 266 266
263 263 268 272 274 277 281 285 287 288 288 288 287 285 282 280 280 282 286 289 288 287 290 292 294 298 300 299 303 312 321 323 328 345 356 350 340 339 347 357 4 6 7 8 11 13 15 13 10 0 346 337 335 337 340 337 336 338 340 341 345 352 358 4 9 12 13 10 3 356 340 315 297 287 282 280 277 275 273 272 271 270 270 269 268 267
255 253 257 262 267 272 277 281 283 287 291 291 290 287 285 282 280 281 284 284 284 285 289 291 294 297 299 299 302 309 313 316 328 349 355 344 335 339 350 358 3 5 6 6 8 12 17 17 15 11 3 350 339 334 333 331 330 332 333 332 334 337 342 348 354 1 6 5 2 5 4 353 337 321 307 297 290 285 281 279 278 277 276 274 273 272
254 253 254 256 259 264 271 278 281 284 287 289 288 286 284 282 279 279 281 281 282 283 286 288 291 295 299 299 302 305 305 311 329 348 348 339 336 343 351 358 2 2 3 4 5 7 14 17 15 13 11 6 357 347 338 331 328 327 327 326 325 325 326 331 335 339 342 344 346 351 353 351 349 344 334 322 312 302 295 290 287 285 284 281 278 276
256 255 255 257 258 262 269 276 280 281 282 283 284 283 282 280 276 275 277 279 280 282 284 285 289 294 297 297 298 300 299 306 324 341 340 335 337 344 350 354 359 358 358 0 2 3 8 12 12 10 9 9 8 6 359 350 342 336 332 327 324 321 319 319 320 323 326 328 328 328 328 327 327 328 328 326 324 321 316 311 307 304 301 296 289 284
259 257 258 259 261 264 269 273 277 278 277 277 279 280 280 278 274 273 274 276 278 280 282 284 288 292 294 294 294 295 294 298 314 330 332 331 337 343 346 349 354 354 352 354 359 2 4 4 5 4 4 5 9 11 8 3 357 350 343 337 330 325 320 315 313 313 314 316 317 317 316 314 314 314 314 315 316 316 316 316 315 315 315 312 306 299
259 259 260 262 263 263 264 267 271 274 274 273 275 276 276 274 271 270 271 273 276 277 278 281 284 287 290 291 291 290 288 290 303 318 322 326 333 339 343 346 348 348 348 351 357 0 359 358 358 359 0 2 5 7 6 2 358 353 347 341 335 328 323 317 312 308 307 306 307 308 309 309 310 311 312 313 313 313 313 312 311 311 311 311 310 307